weather.gov     
National Weather Service

Regional Weather Roundup
NWS Homepage
This page is being discontinued on March 12, 2014.
The same data is available at this site. Please update your bookmarks.
Thank you, and we apologize for the inconvenience.
Please send an email to SR-SRH.Webmaster@noaa.gov with any concerns.


Current Version
Previous Version:    01  02  03  04  05  06  07  08  09  10  11  12  13  14  15  16  17  18  19  20  21  22  23  24  25  26  27  28  29  30  
   31  32  33  34  35  36  37  38  39  40  41  42  43  44  45  46  47  48  49  50  51  52  53  
[Printable]
849
ASUS44 KMEG 251410
RWRMEG
MEMPHIS CWA HOURLY WEATHER ROUNDUP
NATIONAL WEATHER SERVICE MEMPHIS TN
900 AM CDT SAT OCT 25 2014

...WEST TENNESSEE...

CITY           SKY/WX    TMP DP  RH WIND       PRES   REMARKS
MEMPHIS INTL   MOSUNNY   64  56  75 SW6       30.11R
NWS MEMPHIS      N/A     59 N/A N/A MISG        N/A
JACKSON        PTSUNNY   61  56  83 SW6       30.09S
LEXINGTON      MOSUNNY   54  52  94 VRB3      30.09S
SAVANNAH       SUNNY     54  54 100 CALM      30.12S
DYERSBURG      PTSUNNY   61  48  63 CALM      30.09S
UNION CITY     PTSUNNY   57  55  94 SW3       30.06R
PARIS          MOSUNNY   61  54  77 SW8       30.08S
HUNTINGDON     SUNNY     57  53  86 S3        30.09R


...EASTERN ARKANSAS...

CITY           SKY/WX    TMP DP  RH WIND       PRES   REMARKS
JONESBORO      SUNNY     62  58  86 SW7       30.08R
WEST MEMPHIS   SUNNY     62  58  86 VRB6      30.09S
BATESVILLE     SUNNY     66  61  82 SW3       30.08R
NEWPORT        SUNNY     62  59  90 S7        30.09S
WALNUT RIDGE   SUNNY     61  55  82 SW6       30.07S
BLYTHEVILLE    CLOUDY    63  58  83 SW8       30.08R
SEARCY         SUNNY     59  57  93 CALM      30.12R
STUTTGART      SUNNY     63  57  82 SW7       30.13S
PINE BLUFF     SUNNY     61  56  83 W5        30.14R
MONTICELLO     SUNNY     62  54  74 W7        30.16R


...NORTH MISSISSIPPI...

CITY           SKY/WX    TMP DP  RH WIND       PRES   REMARKS
TUPELO         SUNNY     58  53  84 W5        30.12R
OXFORD         SUNNY     55  55 100 CALM      30.15R
OLIVE BRANCH   SUNNY     59  59 100 SW7       30.11S
TUNICA         SUNNY     61  57  88 S6        30.13S
CLARKSDALE     SUNNY     63  57  82 SW6       30.15R
CORINTH        SUNNY     55  52  88 CALM      30.12R
GRENADA          N/A    N/A N/A N/A MISG        N/A
GREENWOOD      SUNNY     58  54  86 S5        30.15R
STARKVILLE     FAIR      55  52  88 CALM      30.14S
GOLDEN TRIANGL SUNNY     57  48  72 CALM      30.14R


...SOUTHEAST MISSOURI...

CITY           SKY/WX    TMP DP  RH WIND       PRES   REMARKS
WEST PLAINS    SUNNY     62  58  86 W8        30.09R
POPLAR BLUFF   MOSUNNY   60  55  83 SW3       30.06R HAZE
CAPE GIRARDEAU SUNNY     61  57  87 CALM      30.06R


...NORTHWEST ALABAMA...

CITY           SKY/WX    TMP DP  RH WIND       PRES   REMARKS
MUSCLE SHOALS    N/A     54  50  86 CALM      30.14R


...MIDDLE TENNESSEE...

CITY           SKY/WX    TMP DP  RH WIND       PRES   REMARKS
NASHVILLE      PTSUNNY   53  50  89 S3        30.11R
CLARKSVILLE    CLOUDY    57  54  89 S7        30.07S
COLUMBIA       MOSUNNY  N/A N/A N/A CALM      30.09F


...WESTERN KENTUCKY...

CITY           SKY/WX    TMP DP  RH WIND       PRES   REMARKS
PADUCAH        SUNNY     61  56  83 SW9       30.05R


...CENTRAL ARKANSAS...

CITY           SKY/WX    TMP DP  RH WIND       PRES   REMARKS
LITTLE ROCK    SUNNY     63  57  81 W7        30.13R


SKY/WX REPORTED AS FAIR MEANS FEW OR NO CLOUDS BELOW
12 THOUSAND FEET.





U.S. Dept. of Commerce
NOAA National Weather Service
1325 East West Highway
Silver Spring, MD 20910
E-mail: w-nws.webmaster@noaa.gov
Page last modified: May 16, 2007
NATIONAL WEATHER SERVICE: for Safety, for Work, for Fun - FOR LIFE